Three Rivers, MI

4:45 PM EST on January 21, 2018 (GMT -0500)
Three Rivers Municipal-Haines

Weather History for KHAI - March, 2012

Change the Weather History Date:

Friday, March 30, 2012

  Actual Average Record
Temperature  
Mean Temperature 38 °F -  
Max Temperature 41 °F 50 °F 79 °F (1986)
Min Temperature 36 °F 33 °F 3 °F (1954)
Degree Days  
Heating Degree Days 26    
Moisture  
Dew Point 36 °F    
Average Humidity 87    
Maximum Humidity 99    
Minimum Humidity 78    
Precipitation  
Precipitation 0.00 in - - ()
Sea Level Pressure  
Sea Level Pressure 29.89 in    
Wind  
Wind Speed 9 mph (East)    
Max Wind Speed 16 mph    
Max Gust Speed 23 mph    
Visibility 8 miles    
Events Rain    
Averages and records for this station are not official NWS values.
T = Trace of Precipitation, MM = Missing Value Source: NWS Daily Summary

Daily Weather History Graph

Daily Weather History Graph

Search for Another Location

Airport or City:

Trip Planner

Search our weather history database for the weather conditions in past years. The results will help you decide how hot, cold, wet, or windy it might be!

Date:

Astronomy

Mar. 30, 2012 Rise Set
Actual Time 7:27 AM EDT 8:06 PM EDT
Civil Twilight 6:59 AM EDT 8:34 PM EDT
Nautical Twilight 6:26 AM EDT 9:07 PM EDT
Astronomical Twilight 5:52 AM EDT 9:42 PM EDT
Moon 12:28 PM EDT (3/30) 2:46 AM EDT (3/30)
Length of Visible Light 13h 34m
Length of Day
12h 38m
Waxing Crescent, 49% of the Moon is Illuminated
Mar 30
Waxing Crescent
Mar 30
First Quarter
Apr 6
Full
Apr 13
Last Quarter
Apr 21
New

Hourly Weather History & Observations

Time (EDT) Temp. Windchill Dew Point Humidity Pressure Visibility Wind Dir Wind Speed Gust Speed Precip Events Conditions
12:14 AM 41.0 °F 37.1 °F 34.7 °F 78% 30.04 in 10.0 mi East 5.8 mph - N/A   Clear
12:35 AM 40.3 °F 33.9 °F 34.7 °F 80% 30.02 in 10.0 mi East 10.4 mph - N/A   Clear
12:54 AM 39.4 °F 33.2 °F 34.7 °F 83% 30.03 in 10.0 mi East 9.2 mph - N/A   Clear
1:14 AM 38.8 °F 34.6 °F 34.5 °F 84% 30.04 in 10.0 mi East 5.8 mph - N/A   Clear
1:35 AM 38.8 °F 33.2 °F 34.3 °F 84% 30.04 in 10.0 mi ESE 8.1 mph - N/A   Clear
1:54 AM 39.2 °F 35.0 °F 34.2 °F 82% 30.04 in 10.0 mi ESE 5.8 mph - N/A   Clear
2:14 AM 39.2 °F 33.0 °F 33.8 °F 81% 30.04 in 10.0 mi ESE 9.2 mph - N/A   Clear
2:35 AM 38.5 °F 32.7 °F 33.4 °F 82% 30.03 in 10.0 mi ESE 8.1 mph - N/A   Clear
2:54 AM 38.3 °F 32.5 °F 33.1 °F 81% 30.02 in 10.0 mi ESE 8.1 mph - N/A   Clear
3:14 AM 37.8 °F 31.3 °F 32.9 °F 83% 30.01 in 10.0 mi ESE 9.2 mph - N/A   Clear
3:34 AM 37.8 °F 30.2 °F 32.4 °F 81% 30.00 in 10.0 mi ESE 11.5 mph 17.3 mph N/A   Clear
3:54 AM 37.6 °F 30.5 °F 32.2 °F 81% 29.99 in 10.0 mi ESE 10.4 mph 17.3 mph N/A   Clear
4:14 AM 37.2 °F 29.6 °F 32.2 °F 82% 29.98 in 10.0 mi ESE 11.5 mph 16.1 mph N/A   Clear
4:35 AM 36.9 °F 29.1 °F 32.2 °F 83% 29.97 in 10.0 mi ESE 11.5 mph 16.1 mph N/A   Clear
4:54 AM 36.7 °F 29.4 °F 32.4 °F 84% 29.96 in 10.0 mi ESE 10.4 mph - N/A   Clear
5:14 AM 36.7 °F 28.9 °F 32.5 °F 85% 29.97 in 10.0 mi ESE 11.5 mph - N/A   Clear
5:34 AM 36.7 °F 29.9 °F 32.9 °F 86% 29.96 in 10.0 mi SE 9.2 mph - N/A   Clear
5:54 AM 37.0 °F 28.9 °F 32.9 °F 85% 29.95 in 10.0 mi ESE 12.7 mph - N/A   Mostly Cloudy
6:14 AM 37.0 °F 29.3 °F 32.9 °F 85% 29.94 in 10.0 mi ESE 11.5 mph - N/A   Mostly Cloudy
6:34 AM 37.6 °F 31.0 °F 33.1 °F 84% 29.94 in 10.0 mi SE 9.2 mph 16.1 mph N/A   Mostly Cloudy
6:55 AM 37.6 °F 30.0 °F 32.9 °F 83% 29.93 in 10.0 mi SE 11.5 mph - N/A   Overcast
7:14 AM 37.6 °F 28.8 °F 33.3 °F 84% 29.92 in 10.0 mi ESE 15.0 mph 20.7 mph N/A   Overcast
7:34 AM 37.4 °F 28.5 °F 33.3 °F 85% 29.91 in 10.0 mi ESE 15.0 mph - N/A   Overcast
7:55 AM 37.4 °F 28.5 °F 33.1 °F 84% 29.90 in 10.0 mi ESE 15.0 mph 18.4 mph N/A   Overcast
8:14 AM 37.4 °F 29.3 °F 32.9 °F 84% 29.90 in 10.0 mi ESE 12.7 mph 18.4 mph N/A   Overcast
8:34 AM 37.0 °F 29.3 °F 32.9 °F 85% 29.88 in 10.0 mi ESE 11.5 mph 18.4 mph N/A   Scattered Clouds
8:54 AM 37.8 °F 30.7 °F 33.6 °F 85% 29.86 in 10.0 mi ESE 10.4 mph - N/A   Mostly Cloudy
9:14 AM 39.4 °F 30.7 °F 34.5 °F 83% 29.84 in 10.0 mi SE 16.1 mph 21.9 mph N/A   Scattered Clouds
9:34 AM 39.9 °F 32.5 °F 34.5 °F 81% 29.83 in 10.0 mi SE 12.7 mph 17.3 mph N/A   Scattered Clouds
9:54 AM 40.5 °F 34.1 °F 35.1 °F 81% 29.83 in 10.0 mi SE 10.4 mph 20.7 mph N/A   Scattered Clouds
10:14 AM 41.0 °F 34.3 °F 35.6 °F 81% 29.83 in 10.0 mi SE 11.5 mph 23.0 mph N/A   Mostly Cloudy
10:34 AM 41.0 °F 33.5 °F 36.3 °F 83% 29.90 in 10.0 mi NW 13.8 mph - N/A Rain Light Rain
10:54 AM 40.1 °F 36.1 °F 36.5 °F 87% 29.89 in 4.0 mi NNW 5.8 mph - N/A Rain Heavy Rain
11:14 AM 38.7 °F 30.5 °F 36.5 °F 92% 29.82 in 1.2 mi East 13.8 mph - N/A Rain Light Rain
11:34 AM 38.8 °F 32.1 °F 37.2 °F 94% 29.79 in 7.0 mi ESE 10.4 mph 21.9 mph N/A Rain Light Rain
11:54 AM 39.2 °F 33.0 °F 37.4 °F 93% 29.81 in 5.0 mi East 9.2 mph - N/A Rain Light Rain
12:34 PM 39.9 °F 33.9 °F 38.3 °F 94% 29.78 in 7.0 mi East 9.2 mph - N/A   Overcast
12:54 PM 40.3 °F 34.4 °F 38.7 °F 94% 29.77 in 7.0 mi ESE 9.2 mph - N/A   Overcast
1:14 PM 40.8 °F 35.6 °F 39.4 °F 95% 29.75 in 5.0 mi ESE 8.1 mph - N/A   Overcast
1:34 PM 40.8 °F 36.9 °F 39.2 °F 94% 29.75 in 7.0 mi East 5.8 mph - N/A   Overcast
1:54 PM 41.0 °F 37.1 °F 39.2 °F 93% 29.76 in 7.0 mi ENE 5.8 mph - N/A Rain Light Rain
2:14 PM 41.2 °F 36.6 °F 39.4 °F 93% 29.75 in 5.0 mi ENE 6.9 mph - N/A   Overcast
2:34 PM 41.2 °F 37.3 °F 39.6 °F 94% 29.76 in 5.0 mi NNE 5.8 mph - N/A Rain Light Rain
2:54 PM 41.0 °F 37.1 °F 39.9 °F 96% 29.78 in 2.5 mi NNE 5.8 mph - N/A   Light Drizzle
3:14 PM 40.3 °F 34.4 °F 39.6 °F 97% 29.76 in 1.5 mi ENE 9.2 mph - N/A Rain Light Rain
3:35 PM 40.1 °F 33.6 °F 39.6 °F 98% 29.76 in 1.8 mi ENE 10.4 mph - N/A Rain Rain
3:54 PM 40.1 °F 34.7 °F 39.7 °F 99% 29.75 in 1.8 mi ENE 8.1 mph - N/A Rain Light Rain
4:14 PM 40.3 °F 34.9 °F 40.1 °F 99% 29.75 in 2.0 mi NNE 8.1 mph - N/A   Overcast
4:35 PM 41.0 °F 36.4 °F 40.6 °F 99% 29.75 in 2.0 mi ENE 6.9 mph - N/A   Overcast
4:54 PM 41.5 °F 36.4 °F 41.0 °F 98% 29.75 in 3.0 mi NE 8.1 mph - N/A   Overcast
5:14 PM 41.4 °F 36.2 °F 40.6 °F 97% 29.76 in 4.0 mi NE 8.1 mph - N/A   Overcast
5:35 PM 41.5 °F 37.1 °F 40.6 °F 97% 29.77 in 4.0 mi NE 6.9 mph - N/A   Overcast
5:54 PM 41.4 °F 36.2 °F 40.3 °F 96% 29.77 in 4.0 mi NE 8.1 mph - N/A   Overcast
6:14 PM 41.5 °F 36.4 °F 40.5 °F 96% 29.78 in 5.0 mi NNE 8.1 mph - N/A   Overcast
6:34 PM 41.5 °F 37.1 °F 40.5 °F 96% 29.79 in 5.0 mi NNE 6.9 mph - N/A   Overcast
6:54 PM 41.4 °F 35.7 °F 40.3 °F 96% 29.79 in 5.0 mi NNE 9.2 mph - N/A   Overcast
7:14 PM 41.2 °F 36.6 °F 40.1 °F 96% 29.79 in 5.0 mi NNE 6.9 mph - N/A   Overcast
7:34 PM 41.0 °F 36.4 °F 39.6 °F 95% 29.80 in 7.0 mi NE 6.9 mph - N/A   Overcast
7:54 PM 41.0 °F 36.4 °F 39.6 °F 95% 29.81 in 7.0 mi NE 6.9 mph - N/A   Overcast
8:15 PM 40.6 °F 36.7 °F 39.2 °F 95% 29.82 in 10.0 mi NNE 5.8 mph - N/A   Overcast
8:54 PM 40.3 °F 35.5 °F 38.7 °F 94% 29.85 in 10.0 mi NE 6.9 mph - N/A   Overcast
9:15 PM 40.3 °F 35.5 °F 38.8 °F 95% 29.85 in 7.0 mi NNE 6.9 mph - N/A   Overcast
9:34 PM 39.7 °F 34.3 °F 38.7 °F 96% 29.85 in 7.0 mi NNE 8.1 mph - N/A   Overcast
9:54 PM 39.4 °F 34.5 °F 38.3 °F 96% 29.86 in 7.0 mi NE 6.9 mph - N/A   Overcast
10:14 PM 39.4 °F 36.1 °F 38.5 °F 97% 29.87 in 5.0 mi NNE 4.6 mph - N/A   Overcast
10:34 PM 38.8 °F 33.2 °F 37.9 °F 97% 29.87 in 5.0 mi NE 8.1 mph - N/A   Overcast
10:54 PM 38.7 °F 34.3 °F 37.9 °F 97% 29.88 in 5.0 mi ENE 5.8 mph - N/A   Overcast
11:14 PM 38.7 °F 34.3 °F 37.9 °F 97% 29.88 in 4.0 mi NE 5.8 mph - N/A   Overcast
11:34 PM 38.5 °F 33.4 °F 37.9 °F 98% 29.87 in 3.0 mi NNE 6.9 mph - N/A   Overcast
11:55 PM 38.3 °F 34.8 °F 37.8 °F 98% 29.89 in 4.0 mi NNE 4.6 mph - N/A   Overcast